Location: Cumbre Roja
(10.2766°N, 67.0675°W)
Time: 23:45:52
(UTC+00:00)

Cosmos 2026 Rocket - Pass Details

Date: 18 November 2025
Orbit: 938 x 1000 km, 82.9° (Epoch: 14 December)

Event Time Altitude Azimuth Distance (km) Brightness Sun altitude
Rises 23:37:50 0° 357° (N) 3,617 6.9 -23.1°
Reaches altitude 10° 23:40:18 10° 357° (N) 2,680 6.2 -23.7°
Maximum altitude 23:46:27 87° 87° (E) 971 3.8 -25.2°
Drops below altitude 10° 23:52:42 10° 176° (S) 2,725 6.5 -26.6°
Sets 23:55:14 0° 176° (S) 3,681 7.2 -27.2°
